[[{"header":{"parameterUnit":"m.s-1","parameterCategory":1,"la1":30.2992,"la2":30.254,"lo1":-89.0895,"lo2":-89.0443,"dy":0.0025,"dx":0.0025,"nx":19,"ny":19,"refTime":"2026-04-10T03:00:00:Z","depth":0,"parameterNumber":2,"parameterNumberName":"U-component_of_WINDS"},"data":[0,0,0,-4.105,-4.1052,-4.1107,-4.1107,-4.1199,-4.12,0,0,0,0,0,0,0,0,0,0,0,-4.1048,-4.1049,-4.105,-4.1052,-4.1107,-4.1107,-4.1199,-4.12,0,0,0,0,0,0,0,0,0,0,0,-4.1047,-4.1048,-4.105,-4.1052,-4.1107,-4.1107,-4.1198,-4.1149,0,0,0,0,0,0,0,0,0,0,-4.1092,-4.1102,-4.1048,-4.105,-4.1053,-4.1107,-4.1107,-4.1146,-4.1152,-4.1183,0,-4.1215,0,-4.1209,-4.1207,-4.1208,0,0,0,-4.1041,-4.1098,-4.1101,-4.105,-4.1053,-4.1107,-4.1079,-4.1149,-4.1156,-4.1191,-4.1216,-4.1219,-4.1211,-4.1208,-4.1209,-4.1425,-4.1427,0,0,-4.1038,-4.1064,-4.1096,-4.1106,-4.11,-4.1078,-4.1081,-4.1153,-4.1182,-4.1217,-4.1221,-4.1212,-4.1209,-4.121,-4.1424,-4.1426,0,0,0,-4.1037,-4.1063,-4.1063,-4.1103,-4.1111,-4.1079,-4.1084,-4.1178,-4.1177,-4.1222,-4.1213,-4.121,-4.1211,-4.1422,-4.1424,-4.1523,0,0,0,-4.1034,-4.1062,-4.1063,-4.1079,-4.111,-4.1146,-4.1108,-4.1172,-4.1179,-4.1213,-4.121,-4.1212,-4.142,-4.1423,-4.1517,-4.1565,0,0,0,-4.1039,-4.1062,-4.1075,-4.108,-4.1105,-4.1144,-4.1146,-4.1173,-4.1175,-4.1208,-4.1212,-4.1419,-4.1423,-4.1511,-4.1555,-4.1628,0,0,0,-4.1051,-4.1162,-4.1077,-4.1197,-4.1105,-4.1206,-4.1145,-4.1219,-4.1259,-4.121,-4.1421,-4.1424,-4.1509,-4.1549,-4.1622,-4.1693,-4.1725,0,0,-4.1205,-4.1181,-4.125,-4.1176,-4.1298,-4.1195,-4.1332,-4.1344,-4.1323,-4.1392,-4.1397,-4.1519,-4.1555,-4.1627,-4.1902,-4.1928,0,0,0,-4.1307,-4.1357,-4.1384,-4.1424,-4.1437,-4.1452,-4.1441,-4.1445,-4.1503,-4.1364,-4.1565,-4.1586,-4.1627,-4.1659,-4.1681,-4.1714,-4.1441,-4.144,-4.144,-4.1559,-4.1528,-4.1639,-4.1615,-4.1656,-4.1644,-4.1673,-4.1677,-4.1633,-4.1681,-4.17,-4.1871,-4.191,-4.1926,-4.1961,-4.1737,-4.1737,-4.1738,-4.1738,-4.1779,-4.1843,-4.1785,-4.1871,-4.1837,-4.1909,-4.1902,-4.1869,-4.193,-4.1854,-4.1888,-4.1805,-4.1956,-4.1984,-4.1745,-4.1744,-4.1743,-4.1742,-4.1742,-4.1939,-4.1964,-4.1969,-4.2025,-4.2072,-4.2044,-4.2106,-4.2074,-4.2043,-4.2078,-4.2094,-4.2092,-4.2084,-4.2088,-4.2089,-4.209,-4.209,-4.209,-4.2091,-4.2101,-4.2104,-4.216,-4.2186,-4.2207,-4.2232,-4.2224,-4.2244,-4.2258,-4.2229,-4.2229,-4.2179,-4.1978,-4.1926,-4.21,-4.2098,-4.2097,-4.2096,-4.2096,-4.2331,-4.2274,-4.2362,-4.2384,-4.2411,-4.2459,-4.2418,-4.2463,-4.2475,-4.2507,-4.2451,-4.2308,-4.228,-4.2263,-4.2219,-4.2459,-4.2459,-4.2459,-4.2459,-4.2464,-4.2448,-4.253,-4.2568,-4.2602,-4.2574,-4.2673,-4.2668,-4.2653,-4.2659,-4.262,-4.2561,-4.2545,-4.2527,-4.2503,-4.2462,-4.2758,-4.2759,-4.2759,-4.2602,-4.2589,-4.2679,-4.2666,-4.2684,-4.2701,-4.2793,-4.2838,-4.281,-4.277,-4.2662,-4.2649,-4.2554,-4.2525,-4.248,-4.2444,-4.2368,0,0]},{"header":{"parameterUnit":"m.s-1","parameterCategory":1,"la1":30.2992,"la2":30.254,"lo1":-89.0895,"lo2":-89.0443,"dy":0.0025,"dx":0.0025,"nx":19,"ny":19,"refTime":"2026-04-10T03:00:00:Z","depth":0,"parameterNumber":3,"parameterNumberName":"V-component_of_WINDS"},"data":[0,0,0,2.3622,2.3622,2.3665,2.3665,2.3706,2.3707,0,0,0,0,0,0,0,0,0,0,0,2.3603,2.3603,2.3622,2.3622,2.3665,2.3665,2.3706,2.3707,0,0,0,0,0,0,0,0,0,0,0,2.3603,2.3603,2.3603,2.3623,2.3665,2.3665,2.3706,2.3679,0,0,0,0,0,0,0,0,0,0,2.3639,2.3616,2.3603,2.3603,2.3623,2.3665,2.3665,2.3677,2.368,2.3682,0,2.3684,0,2.3696,2.3709,2.3709,0,0,0,2.3627,2.3614,2.3631,2.3603,2.3623,2.3664,2.3647,2.3679,2.3682,2.3686,2.3684,2.3686,2.3697,2.3709,2.3709,2.3711,2.371,0,0,2.3624,2.3606,2.3629,2.3633,2.3627,2.3645,2.3648,2.3681,2.3678,2.3685,2.3687,2.3697,2.3709,2.3709,2.3711,2.371,0,0,0,2.3615,2.3604,2.3622,2.3631,2.364,2.3647,2.365,2.3676,2.3683,2.3688,2.3698,2.3709,2.371,2.3711,2.3711,2.3684,0,0,0,2.3614,2.3599,2.362,2.3609,2.3639,2.3659,2.3643,2.3681,2.3685,2.3698,2.3709,2.371,2.3711,2.3711,2.3685,2.3674,0,0,0,2.3602,2.3598,2.3602,2.3608,2.3626,2.3658,2.3668,2.3682,2.3691,2.3709,2.371,2.3711,2.3711,2.3686,2.3676,2.3669,0,0,0,2.3584,2.3576,2.3601,2.3596,2.3626,2.3642,2.3668,2.3681,2.3693,2.371,2.3711,2.3711,2.3687,2.3677,2.367,2.3659,2.3654,0,0,2.3564,2.3573,2.3572,2.3596,2.3603,2.3637,2.3641,2.3668,2.3685,2.3701,2.3701,2.3685,2.3676,2.3669,2.3629,2.3624,0,0,0,2.356,2.3558,2.3564,2.3576,2.3598,2.3616,2.3645,2.3656,2.367,2.369,2.3682,2.3677,2.3673,2.3669,2.3665,2.3663,2.3708,2.3708,2.3708,2.3504,2.3529,2.3528,2.3558,2.3569,2.3601,2.3612,2.3631,2.3651,2.3648,2.3652,2.3625,2.362,2.3617,2.3615,2.365,2.365,2.365,2.365,2.3477,2.3479,2.3508,2.3518,2.3544,2.3552,2.3582,2.3596,2.3607,2.3624,2.3622,2.3638,2.3611,2.361,2.3648,2.3648,2.3648,2.3648,2.3649,2.3442,2.3447,2.3462,2.3483,2.3496,2.3526,2.3536,2.3559,2.358,2.3578,2.3585,2.3586,2.3588,2.358,2.358,2.358,2.358,2.358,2.358,2.34,2.3418,2.3424,2.3448,2.3459,2.3477,2.3509,2.3521,2.3539,2.3554,2.3555,2.3574,2.3605,2.3611,2.3579,2.3579,2.3579,2.3579,2.3579,2.3361,2.3374,2.3384,2.3395,2.3426,2.3438,2.3468,2.3489,2.3502,2.3505,2.3527,2.3546,2.3556,2.3559,2.3565,2.3522,2.3522,2.3522,2.3522,2.3331,2.334,2.3355,2.3372,2.3392,2.3421,2.3429,2.3455,2.3483,2.3492,2.3502,2.3511,2.3514,2.3522,2.3527,2.3532,2.3482,2.3482,2.3482,2.3309,2.3321,2.3324,2.3354,2.338,2.3402,2.3411,2.3428,2.3462,2.3481,2.3499,2.3501,2.3517,2.3521,2.3538,2.3544,2.3554,0,0]}]]